Warroad, MN

10:59 PM CST on February 24, 2017 (GMT -0600)
Warroad International-Carlson

Weather History for KRRT - December, 2013

Change the Weather History Date:

Monday, December 2, 2013

  Actual Average Record
Temperature  
Mean Temperature 20 °F -  
Max Temperature 24 °F 22 °F 50 °F (1962)
Min Temperature 15 °F 5 °F -25 °F (1964)
Degree Days  
Heating Degree Days 46    
Moisture  
Dew Point 17 °F    
Average Humidity 85    
Maximum Humidity 93    
Minimum Humidity 79    
Precipitation  
Precipitation 0.00 in - - ()
Sea Level Pressure  
Sea Level Pressure 29.82 in    
Wind  
Wind Speed 11 mph (ENE)    
Max Wind Speed 20 mph    
Max Gust Speed 26 mph    
Visibility 7 miles    
Events Snow    
Averages and records for this station are not official NWS values.
T = Trace of Precipitation, MM = Missing Value Source: NWS Daily Summary

Daily Weather History Graph

Daily Weather History Graph

Search for Another Location

Airport or City:

Trip Planner

Search our weather history database for the weather conditions in past years. The results will help you decide how hot, cold, wet, or windy it might be!

Date:

Astronomy

Dec. 02, 2013 Rise Set
Actual Time 7:55 AM CST 4:26 PM CST
Civil Twilight 7:18 AM CST 5:02 PM CST
Nautical Twilight 6:39 AM CST 5:42 PM CST
Astronomical Twilight 6:00 AM CST 6:20 PM CST
Moon 7:18 AM CST (12/2) 4:32 PM CST (12/2)
Length of Visible Light 9h 43m
Length of Day
8h 30m
Waning Crescent, 0% of the Moon is Illuminated
Dec 2
Waning Crescent
Dec 2
New
Dec 9
First Quarter
Dec 17
Full
Dec 25
Last Quarter

Hourly Weather History & Observations

Time (CST) Temp. Windchill Dew Point Humidity Pressure Visibility Wind Dir Wind Speed Gust Speed Precip Events Conditions
12:14 AM 15.8 °F 6.1 °F 12.2 °F 86% 29.93 in 10.0 mi ENE 6.9 mph - N/A   Scattered Clouds
12:33 AM 15.8 °F 5.1 °F 12.2 °F 86% 29.92 in 10.0 mi ENE 8.1 mph - N/A   Scattered Clouds
12:54 AM 15.8 °F 5.1 °F 12.2 °F 86% 29.91 in 10.0 mi East 8.1 mph - N/A   Mostly Cloudy
1:14 AM 15.8 °F 4.2 °F 12.2 °F 86% 29.91 in 10.0 mi East 9.2 mph - N/A   Overcast
1:33 AM 15.8 °F 6.1 °F 12.2 °F 86% 29.90 in 10.0 mi East 6.9 mph - N/A   Scattered Clouds
1:54 AM 15.8 °F 5.1 °F 12.2 °F 86% 29.90 in 10.0 mi East 8.1 mph - N/A   Scattered Clouds
2:14 AM 15.8 °F 5.1 °F 12.2 °F 86% 29.89 in 10.0 mi East 8.1 mph - N/A   Mostly Cloudy
2:33 AM 15.8 °F 6.1 °F 12.2 °F 86% 29.89 in 10.0 mi East 6.9 mph - N/A   Overcast
2:54 AM 15.8 °F 5.1 °F 12.2 °F 86% 29.88 in 10.0 mi East 8.1 mph - N/A   Overcast
3:14 AM 15.8 °F 4.2 °F 12.2 °F 86% 29.87 in 10.0 mi East 9.2 mph - N/A   Mostly Cloudy
3:33 AM 15.8 °F 5.1 °F 12.2 °F 86% 29.86 in 10.0 mi East 8.1 mph - N/A   Scattered Clouds
3:54 AM 15.8 °F 5.1 °F 12.2 °F 86% 29.86 in 10.0 mi East 8.1 mph - N/A   Overcast
4:14 AM 17.6 °F 6.4 °F 12.2 °F 79% 29.85 in 10.0 mi East 9.2 mph - N/A   Overcast
4:34 AM 17.6 °F 7.3 °F 12.2 °F 79% 29.84 in 5.0 mi East 8.1 mph - N/A Snow Light Snow
4:54 AM 17.6 °F 6.4 °F 12.2 °F 79% 29.84 in 3.0 mi ENE 9.2 mph - N/A Snow Light Snow
5:14 AM 17.6 °F 5.7 °F 12.2 °F 79% 29.83 in 2.0 mi ENE 10.4 mph - N/A Snow Light Snow
5:34 AM 17.6 °F 6.4 °F 14.0 °F 86% 29.82 in 4.0 mi ENE 9.2 mph - N/A Snow Light Snow
5:54 AM 17.6 °F 6.4 °F 14.0 °F 86% 29.82 in 7.0 mi East 9.2 mph - N/A Snow Light Snow
6:14 AM 19.4 °F 8.6 °F 15.8 °F 86% 29.82 in 5.0 mi ENE 9.2 mph - N/A Snow Light Snow
6:34 AM 19.4 °F 7.9 °F 15.8 °F 86% 29.82 in 2.5 mi ENE 10.4 mph - N/A Snow Light Snow
6:54 AM 19.4 °F 7.2 °F 15.8 °F 86% 29.81 in 7.0 mi ENE 11.5 mph - N/A Snow Light Snow
7:14 AM 19.4 °F 7.9 °F 15.8 °F 86% 29.81 in 10.0 mi ENE 10.4 mph - N/A   Overcast
7:34 AM 19.4 °F 7.2 °F 15.8 °F 86% 29.81 in 10.0 mi ENE 11.5 mph - N/A   Overcast
7:54 AM 19.4 °F 7.2 °F 15.8 °F 86% 29.80 in 10.0 mi ENE 11.5 mph - N/A Snow Light Snow
8:14 AM 19.4 °F 6.6 °F 15.8 °F 86% 29.80 in 7.0 mi ENE 12.7 mph - N/A   Overcast
8:34 AM 19.4 °F 6.0 °F 15.8 °F 86% 29.80 in 7.0 mi ENE 13.8 mph - N/A   Overcast
8:53 AM 19.4 °F 5.5 °F 17.6 °F 93% 29.80 in 7.0 mi ENE 15.0 mph - N/A Snow Light Snow
9:14 AM 21.2 °F 8.3 °F 17.6 °F 86% 29.80 in 7.0 mi ENE 13.8 mph - N/A   Overcast
9:34 AM 21.2 °F 8.3 °F 17.6 °F 86% 29.80 in 10.0 mi ENE 13.8 mph - N/A   Overcast
9:53 AM 21.2 °F 7.8 °F 17.6 °F 86% 29.79 in 10.0 mi ENE 15.0 mph 20.7 mph N/A   Overcast
10:14 AM 21.2 °F 6.8 °F 17.6 °F 86% 29.80 in 10.0 mi ENE 17.3 mph - N/A   Overcast
10:34 AM 23.0 °F 10.1 °F 19.4 °F 86% 29.79 in 10.0 mi ENE 15.0 mph - N/A   Overcast
10:54 AM 23.0 °F 10.1 °F 19.4 °F 86% 29.80 in 5.0 mi ENE 15.0 mph - N/A   Overcast
11:13 AM 23.0 °F 9.6 °F 19.4 °F 86% 29.79 in 5.0 mi ENE 16.1 mph - N/A   Overcast
11:34 AM 24.8 °F 11.9 °F 19.4 °F 80% 29.79 in 4.0 mi ENE 16.1 mph - N/A   Overcast
11:54 AM 24.8 °F 12.4 °F 19.4 °F 80% 29.78 in 5.0 mi ENE 15.0 mph - N/A Snow Light Snow
12:13 PM 24.8 °F 12.4 °F 19.4 °F 80% 29.78 in 7.0 mi NE 15.0 mph - N/A   Overcast
12:34 PM 24.8 °F 12.4 °F 19.4 °F 80% 29.77 in 4.0 mi NE 15.0 mph 18.4 mph N/A Snow Light Snow
12:54 PM 24.8 °F 12.4 °F 19.4 °F 80% 29.77 in 2.5 mi NE 15.0 mph 20.7 mph N/A Snow Light Snow
1:13 PM 24.8 °F 11.9 °F 19.4 °F 80% 29.77 in 4.0 mi NE 16.1 mph 21.9 mph N/A Snow Light Snow
1:34 PM 24.8 °F 11.9 °F 19.4 °F 80% 29.77 in 5.0 mi NE 16.1 mph 21.9 mph N/A Snow Light Snow
1:54 PM 24.8 °F 11.9 °F 19.4 °F 80% 29.76 in 10.0 mi NE 16.1 mph - N/A   Overcast
2:14 PM 24.8 °F 12.9 °F 19.4 °F 80% 29.76 in 10.0 mi NE 13.8 mph 23.0 mph N/A   Overcast
2:34 PM 24.8 °F 11.9 °F 19.4 °F 80% 29.76 in 10.0 mi NE 16.1 mph - N/A Snow Light Snow
2:54 PM 24.8 °F 11.9 °F 19.4 °F 80% 29.76 in 4.0 mi NE 16.1 mph - N/A Snow Light Snow
3:14 PM 24.8 °F 11.5 °F 19.4 °F 80% 29.76 in 4.0 mi NE 17.3 mph - N/A Snow Light Snow
3:34 PM 24.8 °F 12.9 °F 19.4 °F 80% 29.76 in 5.0 mi NE 13.8 mph 20.7 mph N/A Snow Light Snow
3:54 PM 24.8 °F 12.4 °F 19.4 °F 80% 29.76 in 3.0 mi NE 15.0 mph 20.7 mph N/A Snow Light Snow
4:14 PM 23.0 °F 10.1 °F 19.4 °F 86% 29.77 in 2.5 mi NE 15.0 mph 20.7 mph N/A Snow Light Snow
4:34 PM 23.0 °F 9.6 °F 19.4 °F 86% 29.77 in 5.0 mi NE 16.1 mph 21.9 mph N/A Snow Light Snow
4:54 PM 23.0 °F 10.6 °F 19.4 °F 86% 29.78 in 7.0 mi NE 13.8 mph 20.7 mph N/A   Overcast
5:14 PM 23.0 °F 10.6 °F 19.4 °F 86% 29.78 in 7.0 mi NE 13.8 mph 20.7 mph N/A Snow Light Snow
5:34 PM 21.2 °F 8.3 °F 17.6 °F 86% 29.78 in 5.0 mi NE 13.8 mph 23.0 mph N/A Snow Light Snow
5:54 PM 21.2 °F 6.8 °F 17.6 °F 86% 29.79 in 4.0 mi NE 17.3 mph 21.9 mph N/A Snow Light Snow
6:14 PM 21.2 °F 7.8 °F 17.6 °F 86% 29.79 in 5.0 mi NE 15.0 mph 21.9 mph N/A Snow Light Snow
6:34 PM 21.2 °F 8.9 °F 17.6 °F 86% 29.80 in 7.0 mi NE 12.7 mph 20.7 mph N/A Snow Light Snow
6:54 PM 21.2 °F 7.3 °F 17.6 °F 86% 29.80 in 10.0 mi NE 16.1 mph 23.0 mph N/A   Overcast
7:14 PM 21.2 °F 6.4 °F 17.6 °F 86% 29.80 in 10.0 mi NE 18.4 mph 24.2 mph N/A   Overcast
7:33 PM 21.2 °F 6.8 °F 17.6 °F 86% 29.81 in 10.0 mi NE 17.3 mph 25.3 mph N/A   Overcast
7:54 PM 21.2 °F 6.0 °F 17.6 °F 86% 29.81 in 10.0 mi NE 19.6 mph 24.2 mph N/A   Overcast
8:14 PM 21.2 °F 6.4 °F 17.6 °F 86% 29.82 in 10.0 mi NE 18.4 mph 26.5 mph N/A   Overcast
8:33 PM 21.2 °F 6.8 °F 17.6 °F 86% 29.82 in 10.0 mi NE 17.3 mph 25.3 mph N/A   Overcast
8:54 PM 21.2 °F 8.3 °F 17.6 °F 86% 29.82 in 10.0 mi NE 13.8 mph 24.2 mph N/A   Overcast
9:14 PM 21.2 °F 7.3 °F 17.6 °F 86% 29.82 in 10.0 mi NE 16.1 mph 26.5 mph N/A   Overcast
9:33 PM 21.2 °F 7.3 °F 17.6 °F 86% 29.83 in 10.0 mi NE 16.1 mph 24.2 mph N/A   Overcast
9:54 PM 21.2 °F 7.3 °F 17.6 °F 86% 29.83 in 7.0 mi NNE 16.1 mph 25.3 mph N/A   Overcast
10:14 PM 21.2 °F 8.3 °F 17.6 °F 86% 29.83 in 4.0 mi NE 13.8 mph 25.3 mph N/A Snow Light Snow
10:33 PM 21.2 °F 7.3 °F 17.6 °F 86% 29.83 in 4.0 mi NNE 16.1 mph 21.9 mph N/A Snow Light Snow
10:54 PM 21.2 °F 8.3 °F 17.6 °F 86% 29.83 in 7.0 mi NNE 13.8 mph 21.9 mph N/A Snow Light Snow
11:14 PM 21.2 °F 6.4 °F 17.6 °F 86% 29.83 in 10.0 mi NE 18.4 mph 21.9 mph N/A Snow Light Snow
11:34 PM 21.2 °F 6.4 °F 17.6 °F 86% 29.84 in 10.0 mi NNE 18.4 mph 21.9 mph N/A   Overcast
11:54 PM 21.2 °F 7.3 °F 17.6 °F 86% 29.84 in 10.0 mi NNE 16.1 mph 21.9 mph N/A   Overcast